sat.trackr.live / text

‹ back to catalog

FOREST-18 (MANGOSHRIKH*)

NORAD 68999 · 2026-100V

PAYLOAD ACTIVE UNKNOWN

§ Identity

Operator
Country
GREC
Launch date
2026-05-03
Launch site
AFWTR
Launch vehicle
Mass (kg)
RCS (m²)

External: N2YO · Heavens-Above · Gunter

§ Orbital elements

Epoch: 2026-09-19T12:26:23.466624Z

Period
96.46 min
Inclination
97.7191°
Eccentricity
0.0000600
Mean motion
14.92913980 rev/d
Perigee alt
588.4 km
Apogee alt
589.3 km
Semi-major
6,967.0 km
B*
9.9482e-5
RAAN
158.2403°
Arg perigee
85.6279°
Mean anomaly
274.5009°
Rev number
2,077

§ Raw data

FOREST-18 (MANGOSHRIKH*)1 68999U 26100V   26262.51832716  .00000976  00000+0  99482-4 0  99982 68999  97.7191 158.2403 0000600  85.6279 274.5009 14.92913980 20772

JSON: /api/v1/satellites/68999 · /tle

For live sub-satellite position, see the globe view (requires WebGL).

§ Visibility from observer

Set your observer location to see the next 7 days of passes ≥ 10°. The values pass through the URL so the page stays shareable.

No JS? Fill the form by hand. The geolocation button needs JavaScript.